Location: Neuvy Saint Sepulchre
(46.5953°N, 1.8122°E)
Time: 13:22:41
(UTC+02:00)

ISS - Pass Details

Date: 23 September 2022
Orbit: 414 x 417 km, 51.6° (Epoch: 01 October)

Event Time Altitude Azimuth Distance (km) Brightness Sun altitude
Rises 20:30:11 0° 268° (W) 2,358 2.2 -7.9°
Reaches altitude 10° 20:32:22 10° 276° (W) 1,497 0.8 -8.3°
Maximum altitude 20:35:33 39° 348° (NNW) 639 -2.6 -8.9°
Drops below altitude 10° 20:38:45 10° 59° (ENE) 1,501 -1.4 -9.4°
Enters shadow 20:39:05 - 61° (ENE) 1,625 -1.2 -9.5°
